Bangkok (Don Mueang), Thailand

12:15 PM ICT on September 25, 2016 (GMT +0700)
Bangkok International

Weather History for VTBD - November, 2013

Change the Weather History Date:

Thursday, November 28, 2013

  Actual Average Record
Temperature  
Mean Temperature 88 °F -  
Max Temperature 95 °F 88 °F 95 °F (2013)
Min Temperature 80 °F 74 °F 68 °F (2001)
Cooling Degree Days 22    
Growing Degree Days 38 (Base 50)    
Moisture  
Dew Point 74 °F    
Average Humidity 65    
Maximum Humidity 89    
Minimum Humidity 41    
Precipitation  
Precipitation 0.00 in - - ()
Sea Level Pressure  
Sea Level Pressure 29.89 in    
Wind  
Wind Speed 4 mph ()    
Max Wind Speed 12 mph    
Max Gust Speed -    
Visibility 6.0 miles    
Events      
Averages and records for this station are not official NWS values.
T = Trace of Precipitation, MM = Missing Value Source: Averaged Metar Reports

Daily Weather History Graph

Daily Weather History Graph

Search for Another Location

Airport or City:

Trip Planner

Search our weather history database for the weather conditions in past years. The results will help you decide how hot, cold, wet, or windy it might be!

Date:

Astronomy

Nov. 28, 2013 Rise Set
Actual Time 6:23 AM ICT 5:47 PM ICT
Civil Twilight 6:01 AM ICT 6:09 PM ICT
Nautical Twilight 5:34 AM ICT 6:36 PM ICT
Astronomical Twilight 5:08 AM ICT 7:02 PM ICT
Moon 1:41 AM ICT (11/28) 1:56 PM ICT (11/28)
Length of Visible Light 12h 08m
Length of Day
11h 23m
Waning Crescent, 27% of the Moon is Illuminated
Nov 28
Waning Crescent
Dec 3
New
Dec 9
First Quarter
Dec 17
Full
Dec 25
Last Quarter

Hourly Weather History & Observations

Time (ICT) Temp. Heat Index Dew Point Humidity Pressure Visibility Wind Dir Wind Speed Gust Speed Precip Events Conditions
12:00 AM 86.0 °F 95.1 °F 75.2 °F 70% 29.89 in 6.2 mi East 2.3 mph - N/A   Scattered Clouds
12:30 AM 86.0 °F 96.9 °F 77.0 °F 74% 29.89 in 6.2 mi NNE 3.5 mph - N/A   Scattered Clouds
1:00 AM 85 °F - 76 °F 68% 29.89 in 6 mi ENE 3.5 mph - -   Scattered Clouds
1:00 AM 84.2 °F 94.1 °F 77.0 °F 79% 29.89 in 6.2 mi ENE 3.5 mph - N/A   Scattered Clouds
1:30 AM 84.2 °F 94.1 °F 77.0 °F 79% 29.86 in 6.2 mi NNW 2.3 mph - N/A   Scattered Clouds
2:00 AM 84.2 °F 94.1 °F 77.0 °F 79% 29.86 in 6.2 mi Calm Calm - N/A   Scattered Clouds
2:30 AM 84.2 °F 94.1 °F 77.0 °F 79% 29.86 in 5.6 mi NNW 2.3 mph - N/A   Scattered Clouds
3:00 AM 82.4 °F 90.9 °F 77.0 °F 84% 29.86 in 5.6 mi Calm Calm - N/A   Scattered Clouds
3:30 AM 82.4 °F 90.9 °F 77.0 °F 84% 29.86 in 5.6 mi North 2.3 mph - N/A   Scattered Clouds
4:00 AM 82.4 °F 90.9 °F 77.0 °F 84% 29.86 in 5.6 mi North 2.3 mph - N/A   Scattered Clouds
4:30 AM 82.4 °F 90.9 °F 77.0 °F 84% 29.86 in 5.0 mi North 5.8 mph - N/A   Mostly Cloudy
5:00 AM 80.6 °F 87.1 °F 77.0 °F 89% 29.86 in 5.0 mi Calm Calm - N/A   Mostly Cloudy
5:30 AM 80.6 °F 87.1 °F 77.0 °F 89% 29.86 in 5.0 mi Calm Calm - N/A   Mostly Cloudy
6:00 AM 80.6 °F 86.2 °F 75.2 °F 84% 29.86 in 5.0 mi East 2.3 mph - N/A   Mostly Cloudy
6:30 AM 80.6 °F 86.2 °F 75.2 °F 84% 29.89 in 5.0 mi NE 4.6 mph - N/A   Mostly Cloudy
7:00 AM 81 °F - 75 °F 78% 29.91 in 6 mi NE 5.8 mph - -   Mist
7:00 AM 80.6 °F 86.2 °F 75.2 °F 84% 29.89 in 5.6 mi NE 5.8 mph - N/A   Mostly Cloudy
7:30 AM 80.6 °F 86.2 °F 75.2 °F 84% 29.92 in 5.6 mi East 4.6 mph - N/A   Mostly Cloudy
8:00 AM 82.4 °F 88.2 °F 73.4 °F 74% 29.92 in 6.2 mi East 4.6 mph - N/A   Mostly Cloudy
8:30 AM 84.2 °F 90.9 °F 73.4 °F 70% 29.95 in 6.2 mi East 5.8 mph - N/A   Mostly Cloudy
9:00 AM 86.0 °F 93.4 °F 73.4 °F 66% 29.95 in 6.2 mi East 6.9 mph - N/A   Mostly Cloudy
9:30 AM 86.0 °F 93.4 °F 73.4 °F 66% 29.95 in 6.2 mi East 6.9 mph - N/A   Mostly Cloudy
10:00 AM 88 °F - 72 °F 50% 29.96 in 6 mi ESE 5.8 mph - -   Scattered Clouds
10:00 AM 87.8 °F 93.8 °F 71.6 °F 58% 29.95 in 6.2 mi ESE 5.8 mph - N/A   Mostly Cloudy
10:30 AM 87.8 °F 93.8 °F 71.6 °F 58% 29.95 in 6.2 mi ESE 11.5 mph - N/A   Mostly Cloudy
11:00 AM 89.6 °F 96.2 °F 71.6 °F 55% 29.95 in 6.2 mi ESE 11.5 mph - N/A   Mostly Cloudy
11:30 AM 91.4 °F 98.4 °F 71.6 °F 52% 29.92 in 6.2 mi ESE 11.5 mph - N/A   Mostly Cloudy
12:00 PM 91.4 °F 98.4 °F 71.6 °F 52% 29.92 in 6.2 mi ESE 9.2 mph - N/A   Mostly Cloudy
12:30 PM 93.2 °F 100.5 °F 71.6 °F 49% 29.89 in 6.2 mi ESE 9.2 mph - N/A   Mostly Cloudy
1:00 PM 93 °F - 72 °F 41% 29.90 in 6 mi ESE 6.9 mph - -   Scattered Clouds
1:00 PM 93.2 °F 100.5 °F 71.6 °F 49% 29.89 in 6.2 mi ESE 6.9 mph - N/A   Mostly Cloudy
1:30 PM 93.2 °F 100.5 °F 71.6 °F 49% 29.86 in 6.2 mi ESE 9.2 mph - N/A   Mostly Cloudy
2:00 PM 93.2 °F 100.5 °F 71.6 °F 49% 29.86 in 6.2 mi ESE 9.2 mph - N/A   Mostly Cloudy
2:30 PM 95.0 °F 104.5 °F 73.4 °F 49% 29.83 in 6.2 mi East 9.2 mph - N/A   Mostly Cloudy
3:00 PM 95.0 °F 104.5 °F 73.4 °F 49% 29.83 in 6.2 mi East 9.2 mph - N/A   Mostly Cloudy
3:30 PM 95.0 °F 104.5 °F 73.4 °F 49% 29.83 in 6.2 mi North 6.9 mph - N/A   Mostly Cloudy
4:00 PM 93 °F - 73 °F 43% 29.84 in 6 mi East 5.8 mph - -   Scattered Clouds
4:00 PM 95.0 °F 104.5 °F 73.4 °F 49% 29.83 in 6.2 mi East 5.8 mph - N/A   Mostly Cloudy
4:30 PM 95.0 °F 104.5 °F 73.4 °F 49% 29.83 in 6.2 mi ESE 6.9 mph - N/A   Mostly Cloudy
5:00 PM 91.4 °F 100.1 °F 73.4 °F 55% 29.83 in 6.2 mi ESE 6.9 mph - N/A   Mostly Cloudy
5:30 PM 91.4 °F 100.1 °F 73.4 °F 55% 29.86 in 6.2 mi ESE 6.9 mph - N/A   Mostly Cloudy
6:00 PM 89.6 °F 98.2 °F 73.4 °F 59% 29.86 in 6.2 mi East 9.2 mph - N/A   Mostly Cloudy
6:30 PM 87.8 °F 95.6 °F 73.4 °F 62% 29.86 in 6.2 mi ENE 5.8 mph - N/A   Mostly Cloudy
7:00 PM 87 °F - 74 °F 57% 29.89 in 6 mi East 3.5 mph - -   Scattered Clouds
7:00 PM 87.8 °F 95.6 °F 73.4 °F 62% 29.89 in 6.2 mi East 3.5 mph - N/A   Mostly Cloudy
7:30 PM 87.8 °F 95.6 °F 73.4 °F 62% 29.89 in 6.2 mi ESE 3.5 mph - N/A   Mostly Cloudy
8:00 PM 86.0 °F 93.4 °F 73.4 °F 66% 29.89 in 6.2 mi Calm Calm - N/A   Mostly Cloudy
8:30 PM 86.0 °F 93.4 °F 73.4 °F 66% 29.92 in 6.2 mi ESE 3.5 mph - N/A   Mostly Cloudy
9:00 PM 86.0 °F 93.4 °F 73.4 °F 66% 29.92 in 6.2 mi Calm Calm - N/A   Mostly Cloudy
9:30 PM 86.0 °F 93.4 °F 73.4 °F 66% 29.92 in 6.2 mi Calm Calm - N/A   Mostly Cloudy
10:00 PM 85 °F - 74 °F 62% 29.95 in 6 mi Calm Calm - -   Scattered Clouds
10:00 PM 86.0 °F 93.4 °F 73.4 °F 66% 29.95 in 6.2 mi Calm Calm - N/A   Mostly Cloudy
10:30 PM 84.2 °F 90.9 °F 73.4 °F 70% 29.95 in 6.2 mi Calm Calm - N/A   Mostly Cloudy
11:00 PM 84.2 °F 90.9 °F 73.4 °F 70% 29.95 in 6.2 mi ESE 3.5 mph - N/A   Mostly Cloudy
11:30 PM 84.2 °F 90.9 °F 73.4 °F 70% 29.95 in 6.2 mi East 3.5 mph - N/A   Mostly Cloudy